Time,TemperatureF,DewpointF,PressureIn,WindDirection,WindDirectionDegrees,WindSpeedMPH,WindSpeedGustMPH,Humidity,HourlyPrecipIn,Conditions,Clouds,dailyrainin,SoftwareType,DateUTC
2013-08-20 00:03:00,66.9,43.1,30.09,NNE,22,0.0,2.0,42,0.00,CLR,CLR,0.00,WeatherDisplay:10.37,2013-08-20 04:03:00,
2013-08-20 00:18:00,66.7,41.6,30.09,NNE,22,0.0,1.0,40,0.00,CLR,CLR,0.00,WeatherDisplay:10.37,2013-08-20 04:18:00,
2013-08-20 00:33:00,66.6,43.4,30.09,NNE,22,0.0,0.0,43,0.00,CLR,CLR,0.00,WeatherDisplay:10.37,2013-08-20 04:33:00,
2013-08-20 00:48:00,66.6,44.0,30.09,NE,34,0.0,2.0,44,0.00,CLR,CLR,0.00,WeatherDisplay:10.37,2013-08-20 04:48:00,
2013-08-20 01:03:00,66.4,43.8,30.09,NNE,27,0.0,2.0,44,0.00,CLR,CLR,0.00,WeatherDisplay:10.37,2013-08-20 05:03:00,
2013-08-20 01:18:00,66.2,43.0,30.09,North,0,0.0,0.0,43,0.00,CLR,CLR,0.00,WeatherDisplay:10.37,2013-08-20 05:18:00,
2013-08-20 01:33:00,66.2,44.2,30.12,NE,38,0.0,2.0,45,0.00,CLR,CLR,0.00,WeatherDisplay:10.37,2013-08-20 05:33:00,
2013-08-20 01:48:00,65.8,43.3,30.12,North,0,0.0,2.0,44,0.00,CLR,CLR,0.00,WeatherDisplay:10.37,2013-08-20 05:48:00,
2013-08-20 02:03:00,65.8,44.5,30.12,NNE,20,0.0,1.0,46,0.00,CLR,CLR,0.00,WeatherDisplay:10.37,2013-08-20 06:03:00,
2013-08-20 02:18:00,66.0,45.2,30.12,NNE,15,1.0,2.0,47,0.00,CLR,CLR,0.00,WeatherDisplay:10.37,2013-08-20 06:18:00,
2013-08-20 02:33:00,66.6,47.3,30.12,NNE,22,1.0,2.0,50,0.00,CLR,CLR,0.00,WeatherDisplay:10.37,2013-08-20 06:33:00,
2013-08-20 02:48:00,66.9,47.1,30.09,NNE,27,0.0,1.0,49,0.00,CLR,CLR,0.00,WeatherDisplay:10.37,2013-08-20 06:48:00,
2013-08-20 03:03:00,67.5,47.1,30.12,North,9,0.0,2.0,48,0.00,CLR,CLR,0.00,WeatherDisplay:10.37,2013-08-20 07:03:00,
2013-08-20 03:04:00,68.2,47.7,30.12,North,1,0.0,1.0,48,0.00,BKN,BKN,0.00,WeatherDisplay:10.37,2013-08-20 07:04:00,
2013-08-20 03:05:00,68.2,47.7,30.12,North,1,0.0,0.0,48,0.00,BKN,BKN,0.00,WeatherDisplay:10.37,2013-08-20 07:05:00,
2013-08-20 03:06:00,68.2,47.7,30.12,North,1,0.0,0.0,48,0.00,BKN,BKN,0.00,WeatherDisplay:10.37,2013-08-20 07:06:00,
2013-08-20 03:07:00,68.2,47.7,30.12,North,1,0.0,0.0,48,0.00,BKN,BKN,0.00,WeatherDisplay:10.37,2013-08-20 07:07:00,
2013-08-20 03:08:00,68.2,47.7,30.12,North,1,0.0,0.0,48,0.00,BKN,BKN,0.00,WeatherDisplay:10.37,2013-08-20 07:08:00,
2013-08-20 03:09:00,68.2,47.7,30.12,North,1,0.0,0.0,48,0.00,BKN,BKN,0.00,WeatherDisplay:10.37,2013-08-20 07:09:00,
2013-08-20 03:10:00,68.2,47.7,30.12,North,1,0.0,0.0,48,0.00,BKN,BKN,0.00,WeatherDisplay:10.37,2013-08-20 07:10:00,
2013-08-20 03:11:00,68.2,47.7,30.12,North,1,0.0,0.0,48,0.00,BKN,BKN,0.00,WeatherDisplay:10.37,2013-08-20 07:11:00,
2013-08-20 03:12:00,68.2,47.7,30.12,North,1,0.0,0.0,48,0.00,BKN,BKN,0.00,WeatherDisplay:10.37,2013-08-20 07:12:00,
2013-08-20 03:13:00,68.2,47.7,30.12,North,1,0.0,0.0,48,0.00,BKN,BKN,0.00,WeatherDisplay:10.37,2013-08-20 07:13:00,
2013-08-20 03:14:00,68.2,47.7,30.12,North,1,0.0,0.0,48,0.00,BKN,BKN,0.00,WeatherDisplay:10.37,2013-08-20 07:14:00,
2013-08-20 03:15:00,68.2,47.7,30.12,North,1,0.0,0.0,48,0.00,BKN,BKN,0.00,WeatherDisplay:10.37,2013-08-20 07:15:00,
2013-08-20 03:16:00,68.2,47.7,30.12,North,1,0.0,0.0,48,0.00,BKN,BKN,0.00,WeatherDisplay:10.37,2013-08-20 07:16:00,
2013-08-20 03:17:00,68.2,47.7,30.12,North,1,0.0,0.0,48,0.00,BKN,BKN,0.00,WeatherDisplay:10.37,2013-08-20 07:17:00,
2013-08-20 03:18:00,68.2,47.7,30.12,North,1,0.0,0.0,48,0.00,BKN,BKN,0.00,WeatherDisplay:10.37,2013-08-20 07:18:00,
2013-08-20 08:06:00,67.5,47.1,30.12,North,0,2.2,0.0,48,0.00,CLR,,0.00,WeatherDisplay:10.37,2013-08-20 12:06:00,
2013-08-20 08:08:00,67.6,47.2,30.12,North,0,1.2,0.0,48,0.00,-DZ,,0.00,WeatherDisplay:10.37,2013-08-20 12:08:00,
2013-08-20 08:13:00,67.8,47.4,30.12,North,0,0.0,0.0,48,0.00,-DZ,,0.00,WeatherDisplay:10.37,2013-08-20 12:13:00,
2013-08-20 08:18:00,68.4,47.9,30.12,North,0,0.0,0.0,48,0.00,BKN,,0.00,WeatherDisplay:10.37,2013-08-20 12:18:00,
2013-08-20 08:24:00,68.5,48.1,30.12,North,0,0.0,0.0,48,0.00,BKN,,0.00,WeatherDisplay:10.37,2013-08-20 12:24:00,
2013-08-20 08:29:00,68.7,48.2,30.12,NE,45,0.9,0.0,48,0.00,BKN,,0.00,WeatherDisplay:10.37,2013-08-20 12:29:00,
2013-08-20 08:34:00,68.9,48.4,30.12,NE,45,1.2,1.2,48,0.00,BKN,,0.00,WeatherDisplay:10.37,2013-08-20 12:34:00,
2013-08-20 08:39:00,69.1,48.6,30.12,NE,45,0.0,0.0,48,0.00,BKN,,0.00,WeatherDisplay:10.37,2013-08-20 12:39:00,
2013-08-20 08:44:00,69.4,48.9,30.12,NE,45,0.0,0.0,48,0.00,BKN,,0.00,WeatherDisplay:10.37,2013-08-20 12:44:00,
2013-08-20 08:49:00,69.8,49.2,30.12,NE,45,0.0,0.0,48,0.00,BKN,,0.00,WeatherDisplay:10.37,2013-08-20 12:49:00,
2013-08-20 08:54:00,70.0,49.4,30.12,NE,45,0.0,0.0,48,0.00,BKN,,0.00,WeatherDisplay:10.37,2013-08-20 12:54:00,
2013-08-20 08:59:00,70.2,49.5,30.12,NE,45,0.0,0.0,48,0.00,BKN,,0.00,WeatherDisplay:10.37,2013-08-20 12:59:00,
2013-08-20 09:04:00,70.3,69.4,30.15,South,180,0.0,0.0,97,0.00,BKN,,0.00,WeatherDisplay:10.37,2013-08-20 13:04:00,
2013-08-20 09:09:00,70.5,69.6,30.15,South,180,0.0,0.0,97,0.00,BKN,,0.00,WeatherDisplay:10.37,2013-08-20 13:09:00,
2013-08-20 09:14:00,70.9,69.7,30.15,South,180,0.0,0.0,96,0.00,BKN,,0.00,WeatherDisplay:10.37,2013-08-20 13:14:00,
2013-08-20 09:19:00,71.2,69.4,30.15,South,180,0.0,0.0,94,0.00,BKN,,0.00,WeatherDisplay:10.37,2013-08-20 13:19:00,
2013-08-20 09:24:00,71.6,69.2,30.15,South,180,0.0,0.0,92,0.00,BKN,,0.00,WeatherDisplay:10.37,2013-08-20 13:24:00,
2013-08-20 09:29:00,72.3,69.9,30.15,South,180,0.0,0.0,92,0.00,BKN,,0.00,WeatherDisplay:10.37,2013-08-20 13:29:00,
2013-08-20 09:34:00,72.9,69.1,30.15,SW,225,0.0,0.0,88,0.00,BKN,,0.00,WeatherDisplay:10.37,2013-08-20 13:34:00,
2013-08-20 09:39:00,73.4,69.6,30.15,SW,225,0.0,0.0,88,0.00,BKN,,0.00,WeatherDisplay:10.37,2013-08-20 13:39:00,
2013-08-20 09:44:00,74.3,70.2,30.15,North,0,1.2,1.2,87,0.00,BKN,,0.00,WeatherDisplay:10.37,2013-08-20 13:44:00,
2013-08-20 09:49:00,74.8,70.7,30.15,South,180,1.4,1.4,87,0.00,BKN,,0.00,WeatherDisplay:10.37,2013-08-20 13:49:00,
2013-08-20 09:54:00,75.4,70.9,30.15,South,180,1.2,1.2,86,0.00,BKN,,0.00,WeatherDisplay:10.37,2013-08-20 13:54:00,
2013-08-20 09:59:00,75.9,71.1,30.15,South,180,0.0,0.0,85,0.00,BKN,,0.00,WeatherDisplay:10.37,2013-08-20 13:59:00,
2013-08-20 10:04:00,77.0,71.1,30.15,North,0,0.0,0.0,82,0.00,BKN,,0.00,WeatherDisplay:10.37,2013-08-20 14:04:00,
2013-08-20 10:09:00,77.7,70.7,30.15,WSW,248,3.5,3.5,79,0.00,BKN,,0.00,WeatherDisplay:10.37,2013-08-20 14:09:00,
2013-08-20 10:14:00,77.5,69.4,30.15,South,180,2.3,2.3,76,0.00,BKN,,0.00,WeatherDisplay:10.37,2013-08-20 14:14:00,
2013-08-20 10:19:00,78.3,70.1,30.15,East,90,0.0,0.0,76,0.00,BKN,,0.00,WeatherDisplay:10.37,2013-08-20 14:19:00,
2013-08-20 10:24:00,79.0,70.8,30.15,South,180,1.4,1.4,76,0.00,BKN,,0.00,WeatherDisplay:10.37,2013-08-20 14:24:00,
2013-08-20 10:29:00,79.3,70.7,30.15,SSW,202,0.9,0.0,75,0.00,BKN,,0.00,WeatherDisplay:10.37,2013-08-20 14:29:00,
2013-08-20 10:34:00,80.1,71.4,30.15,East,90,1.2,0.0,75,0.00,BKN,,0.00,WeatherDisplay:10.37,2013-08-20 14:34:00,
2013-08-20 10:39:00,80.4,71.8,30.15,South,180,2.0,2.0,75,0.00,BKN,,0.00,WeatherDisplay:10.37,2013-08-20 14:39:00,
2013-08-20 10:44:00,81.5,72.4,30.15,East,90,1.2,0.0,74,0.00,BKN,,0.00,WeatherDisplay:10.37,2013-08-20 14:44:00,
2013-08-20 10:49:00,81.9,72.8,30.15,East,90,2.3,2.3,74,0.00,BKN,,0.00,WeatherDisplay:10.37,2013-08-20 14:49:00,
2013-08-20 10:54:00,82.4,72.0,30.15,SE,135,2.3,2.3,71,0.00,BKN,,0.00,WeatherDisplay:10.37,2013-08-20 14:54:00,
2013-08-20 10:59:00,82.9,72.6,30.15,SW,225,1.2,0.0,71,0.00,BKN,,0.00,WeatherDisplay:10.37,2013-08-20 14:59:00,
2013-08-20 11:04:00,83.3,72.9,30.15,SW,225,3.5,3.5,71,0.00,BKN,,0.00,WeatherDisplay:10.37,2013-08-20 15:04:00,
2013-08-20 11:09:00,84.0,73.6,30.15,SE,135,1.2,0.0,71,0.00,BKN,,0.00,WeatherDisplay:10.37,2013-08-20 15:09:00,
2013-08-20 11:14:00,84.4,72.7,30.15,East,90,2.3,0.0,68,0.00,BKN,,0.00,WeatherDisplay:10.37,2013-08-20 15:14:00,
2013-08-20 11:19:00,85.3,73.5,30.15,East,90,1.2,0.0,68,0.00,BKN,,0.00,WeatherDisplay:10.37,2013-08-20 15:19:00,
2013-08-20 11:24:00,86.2,74.4,30.15,South,180,1.2,1.2,68,0.00,BKN,,0.00,WeatherDisplay:10.37,2013-08-20 15:24:00,
2013-08-20 11:29:00,86.0,74.2,30.15,SW,225,3.5,3.5,68,0.00,BKN,,0.00,WeatherDisplay:10.37,2013-08-20 15:29:00,
2013-08-20 11:34:00,86.4,74.5,30.15,SE,135,2.3,2.3,68,0.00,BKN,,0.00,WeatherDisplay:10.37,2013-08-20 15:34:00,
2013-08-20 11:39:00,84.9,73.2,30.15,East,90,1.2,1.2,68,0.00,BKN,,0.00,WeatherDisplay:10.37,2013-08-20 15:39:00,
2013-08-20 11:44:00,87.3,75.4,30.15,SW,225,3.3,0.0,68,0.00,BKN,,0.00,WeatherDisplay:10.37,2013-08-20 15:44:00,
2013-08-20 11:49:00,86.0,74.2,30.15,SW,225,3.5,3.5,68,0.00,CLR,,0.00,WeatherDisplay:10.37,2013-08-20 15:49:00,
2013-08-20 11:54:00,86.9,75.1,30.15,SW,225,3.5,3.5,68,0.00,CLR,,0.00,WeatherDisplay:10.37,2013-08-20 15:54:00,
2013-08-20 11:59:00,86.2,74.4,30.15,SSW,202,3.5,3.5,68,0.00,CLR,,0.00,WeatherDisplay:10.37,2013-08-20 15:59:00,
2013-08-20 12:04:00,84.7,73.0,30.15,SE,135,3.5,3.5,68,0.00,CLR,,0.00,WeatherDisplay:10.37,2013-08-20 16:04:00,
2013-08-20 12:09:00,84.6,72.8,30.15,SE,135,0.0,0.0,68,0.00,CLR,,0.00,WeatherDisplay:10.37,2013-08-20 16:09:00,
2013-08-20 12:14:00,84.6,72.8,30.15,SE,135,0.0,0.0,68,0.00,CLR,,0.00,WeatherDisplay:10.37,2013-08-20 16:14:00,
2013-08-20 12:19:00,84.6,72.8,30.15,South,180,3.5,3.5,68,0.00,CLR,,0.00,WeatherDisplay:10.37,2013-08-20 16:19:00,
2013-08-20 12:24:00,87.4,75.6,30.15,NW,315,2.3,2.3,68,0.00,CLR,,0.00,WeatherDisplay:10.37,2013-08-20 16:24:00,
2013-08-20 12:29:00,88.7,76.8,30.15,SW,225,3.8,3.8,68,0.00,CLR,,0.00,WeatherDisplay:10.37,2013-08-20 16:29:00,
2013-08-20 12:34:00,89.2,77.3,30.15,East,90,1.2,1.2,68,0.00,-DZ,,0.00,WeatherDisplay:10.37,2013-08-20 16:34:00,
2013-08-20 12:39:00,90.0,77.5,30.15,SE,135,2.3,2.3,67,0.00,-DZ,,0.00,WeatherDisplay:10.37,2013-08-20 16:39:00,
2013-08-20 12:44:00,89.2,77.3,30.15,East,90,1.2,1.2,68,0.00,-DZ,,0.00,WeatherDisplay:10.37,2013-08-20 16:44:00,
2013-08-20 12:49:00,88.5,76.6,30.15,West,270,0.0,0.0,68,0.00,-DZ,,0.00,WeatherDisplay:10.37,2013-08-20 16:49:00,
2013-08-20 12:54:00,89.1,77.1,30.15,East,90,1.2,1.2,68,0.00,-DZ,,0.00,WeatherDisplay:10.37,2013-08-20 16:54:00,
2013-08-20 12:59:00,89.1,77.1,30.15,SSW,202,4.0,4.0,68,0.00,-DZ,,0.00,WeatherDisplay:10.37,2013-08-20 16:59:00,
2013-08-20 13:04:00,89.2,77.3,30.15,East,90,1.2,0.0,68,0.00,-DZ,,0.00,WeatherDisplay:10.37,2013-08-20 17:04:00,
2013-08-20 13:09:00,89.6,77.2,30.15,SSW,202,3.8,3.8,67,0.00,-DZ,,0.00,WeatherDisplay:10.37,2013-08-20 17:09:00,
2013-08-20 13:14:00,90.0,77.5,30.15,South,180,3.5,3.5,67,0.00,-DZ,,0.00,WeatherDisplay:10.37,2013-08-20 17:14:00,
2013-08-20 13:19:00,91.0,78.6,30.15,SW,225,4.6,4.6,67,0.00,-DZ,,0.00,WeatherDisplay:10.37,2013-08-20 17:19:00,
2013-08-20 13:24:00,91.2,78.7,30.15,WSW,248,3.8,3.8,67,0.00,-DZ,,0.00,WeatherDisplay:10.37,2013-08-20 17:24:00,
2013-08-20 13:29:00,92.7,80.1,30.15,East,90,0.0,0.9,67,0.00,-DZ,,0.00,WeatherDisplay:10.37,2013-08-20 17:29:00,
2013-08-20 13:34:00,91.6,79.1,30.12,SW,225,2.3,2.3,67,0.00,BKN,,0.00,WeatherDisplay:10.37,2013-08-20 17:34:00,
2013-08-20 13:39:00,91.8,79.2,30.12,SW,225,4.6,4.6,67,0.00,BKN,,0.00,WeatherDisplay:10.37,2013-08-20 17:39:00,
2013-08-20 13:44:00,92.8,80.3,30.12,West,270,2.3,2.3,67,0.00,BKN,,0.00,WeatherDisplay:10.37,2013-08-20 17:44:00,
2013-08-20 13:49:00,92.8,80.3,30.12,NE,45,2.3,2.3,67,0.00,BKN,,0.00,WeatherDisplay:10.37,2013-08-20 17:49:00,
2013-08-20 13:54:00,93.4,80.3,30.12,NE,45,1.2,0.0,66,0.00,BKN,,0.00,WeatherDisplay:10.37,2013-08-20 17:54:00,
2013-08-20 13:59:00,93.9,80.8,30.12,North,0,2.3,2.3,66,0.00,BKN,,0.00,WeatherDisplay:10.37,2013-08-20 17:59:00,
2013-08-20 14:04:00,91.2,78.7,30.09,East,90,3.5,3.5,67,0.00,,,0.00,WeatherDisplay:10.37,2013-08-20 18:04:00,
2013-08-20 14:09:00,89.6,77.2,30.09,NW,315,4.6,4.6,67,0.00,,,0.00,WeatherDisplay:10.37,2013-08-20 18:09:00,
2013-08-20 14:14:00,89.6,77.2,30.09,East,90,3.5,3.5,67,0.00,,,0.00,WeatherDisplay:10.37,2013-08-20 18:14:00,
2013-08-20 14:19:00,87.3,75.4,30.12,East,90,2.3,2.3,68,0.00,BKN,,0.00,WeatherDisplay:10.37,2013-08-20 18:19:00,
2013-08-20 14:24:00,85.1,73.3,30.12,NNE,22,4.6,4.6,68,0.00,BKN,,0.00,WeatherDisplay:10.37,2013-08-20 18:24:00,
2013-08-20 14:29:00,85.6,73.9,30.12,NE,45,1.2,1.2,68,0.00,BKN,,0.00,WeatherDisplay:10.37,2013-08-20 18:29:00,
2013-08-20 14:34:00,85.3,73.5,30.12,North,0,2.3,2.3,68,0.00,BKN,,0.00,WeatherDisplay:10.37,2013-08-20 18:34:00,
2013-08-20 14:39:00,84.6,72.8,30.12,South,180,1.4,1.4,68,0.00,BKN,,0.00,WeatherDisplay:10.37,2013-08-20 18:39:00,
2013-08-20 14:44:00,84.0,72.8,30.12,SW,225,3.5,3.5,69,0.00,BKN,,0.00,WeatherDisplay:10.37,2013-08-20 18:44:00,
2013-08-20 14:49:00,83.7,72.4,30.12,NE,45,1.2,1.2,69,0.00,BKN,,0.00,WeatherDisplay:10.37,2013-08-20 18:49:00,
2013-08-20 14:54:00,85.1,73.3,30.12,North,0,3.6,3.6,68,0.00,BKN,,0.00,WeatherDisplay:10.37,2013-08-20 18:54:00,
2013-08-20 14:59:00,85.5,73.7,30.12,NE,45,3.5,3.5,68,0.00,BKN,,0.00,WeatherDisplay:10.37,2013-08-20 18:59:00,
2013-08-20 15:04:00,86.4,74.5,30.12,South,180,1.2,0.0,68,0.00,BKN,,0.00,WeatherDisplay:10.37,2013-08-20 19:04:00,
2013-08-20 15:09:00,86.2,74.4,30.12,NE,45,2.3,2.3,68,0.00,BKN,,0.00,WeatherDisplay:10.37,2013-08-20 19:09:00,
2013-08-20 15:14:00,86.2,74.4,30.12,ENE,68,2.3,0.0,68,0.00,BKN,,0.00,WeatherDisplay:10.37,2013-08-20 19:14:00,
2013-08-20 15:19:00,87.8,75.9,30.12,SW,225,2.4,2.4,68,0.00,BKN,,0.00,WeatherDisplay:10.37,2013-08-20 19:19:00,
2013-08-20 15:24:00,89.4,77.5,30.12,SW,225,2.0,2.0,68,0.00,BKN,,0.00,WeatherDisplay:10.37,2013-08-20 19:24:00,
2013-08-20 15:29:00,87.3,75.4,30.12,SW,225,3.5,3.5,68,0.00,BKN,,0.00,WeatherDisplay:10.37,2013-08-20 19:29:00,
2013-08-20 15:34:00,88.0,76.1,30.12,South,180,6.9,6.9,68,0.00,BKN,,0.00,WeatherDisplay:10.37,2013-08-20 19:34:00,
2013-08-20 15:39:00,87.8,75.9,30.12,South,180,2.3,2.3,68,0.00,BKN,,0.00,WeatherDisplay:10.37,2013-08-20 19:39:00,
2013-08-20 15:44:00,89.4,77.5,30.12,East,90,2.3,0.0,68,0.00,BKN,,0.00,WeatherDisplay:10.37,2013-08-20 19:44:00,
2013-08-20 15:49:00,91.2,78.7,30.09,SW,225,1.4,1.4,67,0.00,BKN,,0.00,WeatherDisplay:10.37,2013-08-20 19:49:00,
2013-08-20 15:54:00,91.2,78.7,30.09,East,90,2.3,2.3,67,0.00,BKN,,0.00,WeatherDisplay:10.37,2013-08-20 19:54:00,
2013-08-20 15:59:00,90.7,78.2,30.09,SE,135,2.3,2.3,67,0.00,BKN,,0.00,WeatherDisplay:10.37,2013-08-20 19:59:00,
2013-08-20 16:04:00,91.9,79.4,30.09,SE,135,0.0,0.0,67,0.00,BKN,,0.00,WeatherDisplay:10.37,2013-08-20 20:04:00,
2013-08-20 16:09:00,92.1,79.6,30.09,South,180,1.6,0.0,67,0.00,BKN,,0.00,WeatherDisplay:10.37,2013-08-20 20:09:00,
2013-08-20 16:14:00,93.2,80.1,30.09,North,0,2.3,2.3,66,0.00,BKN,,0.00,WeatherDisplay:10.37,2013-08-20 20:14:00,
2013-08-20 16:19:00,91.9,79.4,30.09,East,90,1.6,1.6,67,0.00,BKN,,0.00,WeatherDisplay:10.37,2013-08-20 20:19:00,
2013-08-20 16:24:00,90.0,77.5,30.09,SE,135,3.5,3.5,67,0.00,BKN,,0.00,WeatherDisplay:10.37,2013-08-20 20:24:00,
2013-08-20 16:29:00,88.3,76.4,30.09,SE,135,1.4,1.6,68,0.00,BKN,,0.00,WeatherDisplay:10.37,2013-08-20 20:29:00,
2013-08-20 16:34:00,87.3,75.4,30.09,South,180,1.2,1.2,68,0.00,BKN,,0.00,WeatherDisplay:10.37,2013-08-20 20:34:00,
2013-08-20 16:39:00,86.4,74.5,30.09,South,180,2.6,2.6,68,0.00,BKN,,0.00,WeatherDisplay:10.37,2013-08-20 20:39:00,
2013-08-20 16:44:00,85.8,74.0,30.09,South,180,2.6,0.0,68,0.00,BKN,,0.00,WeatherDisplay:10.37,2013-08-20 20:44:00,
2013-08-20 16:49:00,84.6,72.8,30.12,South,180,4.6,4.6,68,0.00,BKN,,0.00,WeatherDisplay:10.37,2013-08-20 20:49:00,
2013-08-20 16:54:00,83.7,72.4,30.12,SE,135,1.4,1.4,69,0.00,BKN,,0.00,WeatherDisplay:10.37,2013-08-20 20:54:00,
2013-08-20 16:59:00,83.1,71.9,30.12,South,180,4.0,4.0,69,0.00,BKN,,0.00,WeatherDisplay:10.37,2013-08-20 20:59:00,
2013-08-20 17:04:00,82.4,71.2,30.09,South,180,2.3,2.3,69,0.00,OVC,,0.00,WeatherDisplay:10.37,2013-08-20 21:04:00,
2013-08-20 17:09:00,81.7,70.5,30.09,South,180,4.6,4.6,69,0.00,OVC,,0.00,WeatherDisplay:10.37,2013-08-20 21:09:00,
2013-08-20 17:14:00,81.1,70.0,30.09,SSW,202,4.6,4.6,69,0.00,OVC,,0.00,WeatherDisplay:10.37,2013-08-20 21:14:00,
2013-08-20 17:19:00,81.0,69.8,30.09,SW,225,7.6,7.6,69,0.00,OVC,,0.00,WeatherDisplay:10.37,2013-08-20 21:19:00,
2013-08-20 17:24:00,80.8,69.7,30.09,SW,225,3.5,3.5,69,0.00,OVC,,0.00,WeatherDisplay:10.37,2013-08-20 21:24:00,
2013-08-20 17:29:00,80.8,69.7,30.09,SW,225,3.5,3.5,69,0.00,OVC,,0.00,WeatherDisplay:10.37,2013-08-20 21:29:00,
2013-08-20 17:34:00,81.0,69.8,30.09,East,90,0.0,0.0,69,0.00,BKN,,0.00,WeatherDisplay:10.37,2013-08-20 21:34:00,
2013-08-20 17:39:00,80.6,69.5,30.09,SSW,202,3.5,3.5,69,0.00,BKN,,0.00,WeatherDisplay:10.37,2013-08-20 21:39:00,
2013-08-20 17:44:00,80.6,69.5,30.09,SSW,202,2.6,2.6,69,0.00,BKN,,0.00,WeatherDisplay:10.37,2013-08-20 21:44:00,
2013-08-20 17:49:00,80.8,69.7,30.09,SE,135,1.2,1.4,69,0.00,BKN,,0.00,WeatherDisplay:10.37,2013-08-20 21:49:00,
2013-08-20 17:54:00,80.8,69.7,30.09,South,180,0.0,0.0,69,0.00,BKN,,0.00,WeatherDisplay:10.37,2013-08-20 21:54:00,
2013-08-20 17:59:00,80.4,69.7,30.09,South,180,0.0,0.0,70,0.00,BKN,,0.00,WeatherDisplay:10.37,2013-08-20 21:59:00,
2013-08-20 18:04:00,80.2,69.6,30.06,NE,45,2.3,2.3,70,0.00,-RA,,0.00,WeatherDisplay:10.37,2013-08-20 22:04:00,
2013-08-20 18:09:00,80.1,69.4,30.06,North,0,1.4,1.4,70,0.00,-RA,,0.00,WeatherDisplay:10.37,2013-08-20 22:09:00,
2013-08-20 18:14:00,80.6,69.5,30.06,NNE,22,1.2,1.2,69,0.00,-RA,,0.00,WeatherDisplay:10.37,2013-08-20 22:14:00,
2013-08-20 18:19:00,80.4,69.7,30.06,NNE,22,2.3,2.3,70,0.00,-RA,,0.00,WeatherDisplay:10.37,2013-08-20 22:19:00,
2013-08-20 18:24:00,79.9,69.2,30.06,NNE,22,3.5,3.5,70,0.00,-RA,,0.00,WeatherDisplay:10.37,2013-08-20 22:24:00,
2013-08-20 18:29:00,79.5,68.9,30.06,NE,45,1.2,0.0,70,0.00,-RA,,0.00,WeatherDisplay:10.37,2013-08-20 22:29:00,
2013-08-20 18:33:00,71.4,42.3,30.12,NNE,22,0.0,0.0,35,0.00,CLR,CLR,0.00,WeatherDisplay:10.37,2013-08-20 22:33:00,
2013-08-20 18:34:00,79.0,68.4,30.06,WNW,292,0.0,0.0,70,0.00,BKN,,0.00,WeatherDisplay:10.37,2013-08-20 22:34:00,
2013-08-20 18:39:00,78.8,68.2,30.06,WNW,292,0.0,0.0,70,0.00,BKN,,0.00,WeatherDisplay:10.37,2013-08-20 22:39:00,
2013-08-20 18:44:00,78.6,68.0,30.06,WNW,292,0.0,0.0,70,0.00,BKN,,0.00,WeatherDisplay:10.37,2013-08-20 22:44:00,
2013-08-20 18:48:00,71.2,42.2,30.12,NNE,22,0.0,0.0,35,0.00,CLR,CLR,0.00,WeatherDisplay:10.37,2013-08-20 22:48:00,
2013-08-20 18:49:00,78.1,67.5,30.09,WNW,292,0.0,0.0,70,0.00,BKN,,0.00,WeatherDisplay:10.37,2013-08-20 22:49:00,
2013-08-20 18:54:00,77.9,67.3,30.09,WNW,292,0.0,0.0,70,0.00,BKN,,0.00,WeatherDisplay:10.37,2013-08-20 22:54:00,
2013-08-20 19:00:00,77.9,67.3,30.09,WNW,292,0.0,0.0,70,0.00,BKN,,0.00,WeatherDisplay:10.37,2013-08-20 23:00:00,
2013-08-20 19:03:00,71.1,41.3,30.12,NW,326,0.0,0.0,34,0.00,CLR,CLR,0.00,WeatherDisplay:10.37,2013-08-20 23:03:00,
2013-08-20 19:05:00,77.5,67.0,30.09,NE,45,0.0,0.0,70,0.00,BKN,,0.00,WeatherDisplay:10.37,2013-08-20 23:05:00,
2013-08-20 19:10:00,77.0,66.5,30.09,NE,45,0.0,0.0,70,0.00,BKN,,0.00,WeatherDisplay:10.37,2013-08-20 23:10:00,
2013-08-20 19:15:00,76.6,66.1,30.09,NE,45,0.0,0.0,70,0.00,BKN,,0.00,WeatherDisplay:10.37,2013-08-20 23:15:00,
2013-08-20 19:18:00,70.9,41.9,30.12,West,270,0.0,0.0,35,0.00,CLR,CLR,0.00,WeatherDisplay:10.37,2013-08-20 23:18:00,
2013-08-20 19:20:00,76.6,66.1,30.09,North,0,0.0,0.0,70,0.00,BKN,,0.00,WeatherDisplay:10.37,2013-08-20 23:20:00,
2013-08-20 19:26:00,76.5,67.2,30.09,NNE,22,0.0,0.0,73,0.00,BKN,,0.00,WeatherDisplay:10.37,2013-08-20 23:26:00,
2013-08-20 19:31:00,76.3,67.0,30.09,NE,45,0.0,0.0,73,0.00,BKN,,0.00,WeatherDisplay:10.37,2013-08-20 23:31:00,
2013-08-20 19:33:00,70.7,42.4,30.09,West,270,0.0,0.0,36,0.00,CLR,CLR,0.00,WeatherDisplay:10.37,2013-08-20 23:33:00,
2013-08-20 19:36:00,75.9,66.6,30.09,NNE,22,0.0,0.0,73,0.00,BKN,,0.00,WeatherDisplay:10.37,2013-08-20 23:36:00,
2013-08-20 19:41:00,75.6,67.1,30.09,NNE,22,0.0,0.0,75,0.00,BKN,,0.00,WeatherDisplay:10.37,2013-08-20 23:41:00,
2013-08-20 19:46:00,75.2,67.1,30.09,NE,45,0.0,0.0,76,0.00,BKN,,0.00,WeatherDisplay:10.37,2013-08-20 23:46:00,
2013-08-20 19:48:00,70.7,42.4,30.12,West,270,0.0,0.0,36,0.00,CLR,CLR,0.00,WeatherDisplay:10.37,2013-08-20 23:48:00,
2013-08-20 19:51:00,75.2,67.1,30.09,NE,45,0.0,0.0,76,0.00,BKN,,0.00,WeatherDisplay:10.37,2013-08-20 23:51:00,
2013-08-20 19:56:00,75.0,66.9,30.09,NE,45,0.0,0.0,76,0.00,BKN,,0.00,WeatherDisplay:10.37,2013-08-20 23:56:00,
2013-08-20 20:01:00,74.8,66.8,30.09,NE,45,0.0,0.0,76,0.00,BKN,,0.00,WeatherDisplay:10.37,2013-08-21 00:01:00,
2013-08-20 20:03:00,70.5,42.3,30.09,West,270,0.0,0.0,36,0.00,CLR,CLR,0.00,WeatherDisplay:10.37,2013-08-21 00:03:00,
2013-08-20 20:06:00,74.7,66.6,30.09,NE,45,0.0,0.0,76,0.00,BKN,,0.00,WeatherDisplay:10.37,2013-08-21 00:06:00,
2013-08-20 20:11:00,74.7,66.6,30.09,NNE,22,0.0,0.0,76,0.00,BKN,,0.00,WeatherDisplay:10.37,2013-08-21 00:11:00,
2013-08-20 20:16:00,74.5,67.2,30.09,NNE,22,0.0,0.0,78,0.00,BKN,,0.00,WeatherDisplay:10.37,2013-08-21 00:16:00,
2013-08-20 20:18:00,70.9,43.3,30.12,SE,135,0.0,0.0,37,0.00,CLR,CLR,0.00,WeatherDisplay:10.37,2013-08-21 00:18:00,
2013-08-20 20:21:00,74.5,67.2,30.09,NNE,22,0.0,0.0,78,0.00,BKN,,0.00,WeatherDisplay:10.37,2013-08-21 00:21:00,
2013-08-20 20:26:00,74.3,67.0,30.09,North,0,0.0,0.0,78,0.00,BKN,,0.00,WeatherDisplay:10.37,2013-08-21 00:26:00,
2013-08-20 20:31:00,73.9,68.4,30.09,West,270,0.0,0.0,83,0.00,BKN,,0.00,WeatherDisplay:10.37,2013-08-21 00:31:00,
2013-08-20 20:33:00,70.5,42.3,30.12,SE,135,0.0,0.0,36,0.00,CLR,CLR,0.00,WeatherDisplay:10.37,2013-08-21 00:33:00,
2013-08-20 20:36:00,73.9,67.0,30.12,West,270,0.0,0.0,79,0.00,BKN,,0.00,WeatherDisplay:10.37,2013-08-21 00:36:00,
2013-08-20 20:41:00,73.8,66.5,30.12,NE,45,0.0,0.0,78,0.00,BKN,,0.00,WeatherDisplay:10.37,2013-08-21 00:41:00,
2013-08-20 20:46:00,73.6,66.3,30.12,NE,45,0.0,0.0,78,0.00,BKN,,0.00,WeatherDisplay:10.37,2013-08-21 00:46:00,
2013-08-20 20:48:00,70.5,43.0,30.12,SE,135,0.0,0.0,37,0.00,CLR,CLR,0.00,WeatherDisplay:10.37,2013-08-21 00:48:00,
2013-08-20 20:51:00,73.4,66.1,30.12,NE,45,0.0,0.0,78,0.00,BKN,,0.00,WeatherDisplay:10.37,2013-08-21 00:51:00,
2013-08-20 20:56:00,73.2,66.3,30.12,NE,45,0.0,0.0,79,0.00,BKN,,0.00,WeatherDisplay:10.37,2013-08-21 00:56:00,
2013-08-20 21:01:00,73.2,66.7,30.12,North,0,0.0,0.0,80,0.00,BKN,,0.00,WeatherDisplay:10.37,2013-08-21 01:01:00,
2013-08-20 21:03:00,70.3,43.5,30.09,SE,135,0.0,0.0,38,0.00,CLR,CLR,0.00,WeatherDisplay:10.37,2013-08-21 01:03:00,
2013-08-20 21:06:00,73.2,67.0,30.12,NNE,22,0.0,0.0,81,0.00,BKN,,0.00,WeatherDisplay:10.37,2013-08-21 01:06:00,
2013-08-20 21:11:00,73.2,67.0,30.12,NNE,22,0.0,0.0,81,0.00,BKN,,0.00,WeatherDisplay:10.37,2013-08-21 01:11:00,
2013-08-20 21:16:00,73.0,66.9,30.12,NNE,22,0.0,0.0,81,0.00,BKN,,0.00,WeatherDisplay:10.37,2013-08-21 01:16:00,
2013-08-20 21:18:00,70.2,42.7,30.12,SE,135,0.0,1.0,37,0.00,CLR,CLR,0.00,WeatherDisplay:10.37,2013-08-21 01:18:00,
2013-08-20 21:20:00,73.0,66.9,30.12,NNE,22,0.0,0.0,81,0.00,BKN,,0.00,WeatherDisplay:10.37,2013-08-21 01:20:00,
2013-08-20 21:26:00,72.9,67.0,30.12,NNE,22,0.0,0.0,82,0.00,BKN,,0.00,WeatherDisplay:10.37,2013-08-21 01:26:00,
2013-08-20 21:31:00,72.7,67.6,30.12,North,0,0.0,0.0,84,0.00,BKN,,0.00,WeatherDisplay:10.37,2013-08-21 01:31:00,
2013-08-20 21:33:00,69.8,43.0,30.09,SE,135,0.0,0.0,38,0.00,CLR,CLR,0.00,WeatherDisplay:10.37,2013-08-21 01:33:00,
2013-08-20 21:36:00,72.9,67.7,30.12,NNE,22,0.0,0.0,84,0.00,BKN,,0.00,WeatherDisplay:10.37,2013-08-21 01:36:00,
2013-08-20 21:41:00,72.7,67.6,30.12,NNE,22,0.0,0.0,84,0.00,BKN,,0.00,WeatherDisplay:10.37,2013-08-21 01:41:00,
2013-08-20 21:46:00,72.7,67.9,30.12,NNE,22,0.0,0.0,85,0.00,BKN,,0.00,WeatherDisplay:10.37,2013-08-21 01:46:00,
2013-08-20 21:48:00,69.4,43.4,30.09,East,90,0.0,0.0,39,0.00,CLR,CLR,0.00,WeatherDisplay:10.37,2013-08-21 01:48:00,
2013-08-20 21:51:00,72.5,68.1,30.12,NNE,22,0.0,0.0,86,0.00,BKN,,0.00,WeatherDisplay:10.37,2013-08-21 01:51:00,
2013-08-20 21:56:00,72.3,67.9,30.12,NNE,22,0.0,0.0,86,0.00,BKN,,0.00,WeatherDisplay:10.37,2013-08-21 01:56:00,
2013-08-20 22:01:00,72.1,67.7,30.12,NNE,22,0.0,0.0,86,0.00,BKN,,0.00,WeatherDisplay:10.37,2013-08-21 02:01:00,
2013-08-20 22:03:00,69.1,43.7,30.12,NE,45,0.0,0.0,40,0.00,CLR,CLR,0.00,WeatherDisplay:10.37,2013-08-21 02:03:00,
2013-08-20 22:06:00,71.8,67.4,30.12,NNE,22,0.0,0.0,86,0.00,BKN,,0.00,WeatherDisplay:10.37,2013-08-21 02:06:00,
2013-08-20 22:11:00,71.4,67.3,30.12,NNE,22,0.0,0.0,87,0.00,BKN,,0.00,WeatherDisplay:10.37,2013-08-21 02:11:00,
2013-08-20 22:16:00,71.4,67.3,30.12,NNE,22,0.0,0.0,87,0.00,SCT,,0.00,WeatherDisplay:10.37,2013-08-21 02:16:00,
2013-08-20 22:18:00,68.7,44.7,30.12,NE,45,0.0,0.0,42,0.00,CLR,CLR,0.00,WeatherDisplay:10.37,2013-08-21 02:18:00,
2013-08-20 22:21:00,71.4,67.7,30.12,NNE,22,0.0,0.0,88,0.00,SCT,,0.00,WeatherDisplay:10.37,2013-08-21 02:21:00,
2013-08-20 22:26:00,71.4,67.7,30.12,NNE,22,0.0,0.0,88,0.00,SCT,,0.00,WeatherDisplay:10.37,2013-08-21 02:26:00,
2013-08-20 22:31:00,71.4,67.7,30.12,NNE,22,0.0,0.0,88,0.00,SCT,,0.00,WeatherDisplay:10.37,2013-08-21 02:31:00,
2013-08-20 22:33:00,68.7,44.7,30.12,NE,40,0.0,0.0,42,0.00,CLR,CLR,0.00,WeatherDisplay:10.37,2013-08-21 02:33:00,
2013-08-20 22:36:00,71.2,67.5,30.12,NNE,22,0.0,0.0,88,0.00,SCT,,0.00,WeatherDisplay:10.37,2013-08-21 02:36:00,
2013-08-20 22:41:00,71.2,67.8,30.12,NNE,22,0.0,0.0,89,0.00,SCT,,0.00,WeatherDisplay:10.37,2013-08-21 02:41:00,
2013-08-20 22:46:00,71.2,67.8,30.12,NNE,22,0.0,0.0,89,0.00,SCT,,0.00,WeatherDisplay:10.37,2013-08-21 02:46:00,
2013-08-20 22:48:00,68.5,45.1,30.12,East,90,0.0,0.0,43,0.00,CLR,CLR,0.00,WeatherDisplay:10.37,2013-08-21 02:48:00,
2013-08-20 22:51:00,71.1,67.7,30.12,NNE,22,0.0,0.0,89,0.00,SCT,,0.00,WeatherDisplay:10.37,2013-08-21 02:51:00,
2013-08-20 22:56:00,71.1,68.0,30.12,North,0,0.0,0.0,90,0.00,SCT,,0.00,WeatherDisplay:10.37,2013-08-21 02:56:00,
2013-08-20 23:01:00,71.2,68.2,30.12,NNE,22,0.0,0.0,90,0.00,-DZ,,0.00,WeatherDisplay:10.37,2013-08-21 03:01:00,
2013-08-20 23:03:00,68.2,44.8,30.15,East,90,0.0,0.0,43,0.00,CLR,CLR,0.00,WeatherDisplay:10.37,2013-08-21 03:03:00,
2013-08-20 23:06:00,71.2,68.2,30.12,NE,45,1.2,1.2,90,0.00,-DZ,,0.00,WeatherDisplay:10.37,2013-08-21 03:06:00,
2013-08-20 23:11:00,71.2,68.2,30.12,NNE,22,0.0,0.0,90,0.00,-DZ,,0.00,WeatherDisplay:10.37,2013-08-21 03:11:00,
2013-08-20 23:16:00,71.2,68.2,30.12,NNE,22,0.0,0.0,90,0.00,SCT,,0.00,WeatherDisplay:10.37,2013-08-21 03:16:00,
2013-08-20 23:18:00,68.0,45.3,30.12,East,90,0.0,0.0,44,0.00,CLR,CLR,0.00,WeatherDisplay:10.37,2013-08-21 03:18:00,
2013-08-20 23:21:00,71.4,68.3,30.09,NNE,22,0.0,0.0,90,0.00,SCT,,0.00,WeatherDisplay:10.37,2013-08-21 03:21:00,
2013-08-20 23:26:00,71.2,68.2,30.09,NNE,22,0.0,0.0,90,0.00,SCT,,0.00,WeatherDisplay:10.37,2013-08-21 03:26:00,
2013-08-20 23:33:00,67.8,45.7,30.12,East,90,0.0,0.0,45,0.00,CLR,CLR,0.00,WeatherDisplay:10.37,2013-08-21 03:33:00,
2013-08-20 23:48:00,67.6,45.5,30.12,East,90,0.0,0.0,45,0.00,CLR,CLR,0.00,WeatherDisplay:10.37,2013-08-21 03:48:00,